Year,Month,Day,Hour,Minute,Value (Times are PST for temperature in C)
2015,07,03,00,00,17.70
2015,07,03,00,01,17.70
2015,07,03,00,02,17.70
2015,07,03,00,03,17.70
2015,07,03,00,04,17.70
2015,07,03,00,05,17.70
2015,07,03,00,06,17.70
2015,07,03,00,07,17.60
2015,07,03,00,08,17.60
2015,07,03,00,09,17.60
2015,07,03,00,10,17.60
2015,07,03,00,11,17.60
2015,07,03,00,12,17.60
2015,07,03,00,13,17.60
2015,07,03,00,14,17.50
2015,07,03,00,15,17.50
2015,07,03,00,16,17.50
2015,07,03,00,17,17.50
2015,07,03,00,18,17.40
2015,07,03,00,19,17.40
2015,07,03,00,20,17.40
2015,07,03,00,21,17.40
2015,07,03,00,22,17.40
2015,07,03,00,23,17.40
2015,07,03,00,24,17.40
2015,07,03,00,25,17.40
2015,07,03,00,26,17.40
2015,07,03,00,27,17.40
2015,07,03,00,28,17.40
2015,07,03,00,29,17.40
2015,07,03,00,30,17.40
2015,07,03,00,31,17.40
2015,07,03,00,32,17.40
2015,07,03,00,33,17.30
2015,07,03,00,34,17.30
2015,07,03,00,35,17.30
2015,07,03,00,36,17.30
2015,07,03,00,37,17.30
2015,07,03,00,38,17.30
2015,07,03,00,39,17.30
2015,07,03,00,40,17.30
2015,07,03,00,41,17.20
2015,07,03,00,42,17.20
2015,07,03,00,43,17.20
2015,07,03,00,44,17.20
2015,07,03,00,45,17.20
2015,07,03,00,46,17.10
2015,07,03,00,47,17.10
2015,07,03,00,48,17.10
2015,07,03,00,49,17.10
2015,07,03,00,50,17.10
2015,07,03,00,51,17.10
2015,07,03,00,52,17.00
2015,07,03,00,53,17.00
2015,07,03,00,54,17.00
2015,07,03,00,55,17.00
2015,07,03,00,56,17.00
2015,07,03,00,57,17.00
2015,07,03,00,58,16.90
2015,07,03,00,59,16.90
2015,07,03,01,00,16.90
2015,07,03,01,01,16.90
2015,07,03,01,02,16.90
2015,07,03,01,03,16.90
2015,07,03,01,04,16.90
2015,07,03,01,05,16.90
2015,07,03,01,06,16.90
2015,07,03,01,07,16.90
2015,07,03,01,08,16.80
2015,07,03,01,09,16.80
2015,07,03,01,10,16.80
2015,07,03,01,11,16.80
2015,07,03,01,12,16.80
2015,07,03,01,13,16.70
2015,07,03,01,14,16.70
2015,07,03,01,15,16.70
2015,07,03,01,16,16.70
2015,07,03,01,17,16.70
2015,07,03,01,18,16.60
2015,07,03,01,19,16.60
2015,07,03,01,20,16.60
2015,07,03,01,21,16.60
2015,07,03,01,22,16.60
2015,07,03,01,23,16.60
2015,07,03,01,24,16.50
2015,07,03,01,25,16.50
2015,07,03,01,26,16.50
2015,07,03,01,27,16.50
2015,07,03,01,28,16.40
2015,07,03,01,29,16.40
2015,07,03,01,30,16.40
2015,07,03,01,31,16.40
2015,07,03,01,32,16.40
2015,07,03,01,33,16.40
2015,07,03,01,34,16.40
2015,07,03,01,35,16.40
2015,07,03,01,36,16.40
2015,07,03,01,37,16.30
2015,07,03,01,38,16.30
2015,07,03,01,39,16.30
2015,07,03,01,40,16.30
2015,07,03,01,41,16.30
2015,07,03,01,42,16.30
2015,07,03,01,43,16.30
2015,07,03,01,44,16.30
2015,07,03,01,45,16.30
2015,07,03,01,46,16.30
2015,07,03,01,47,16.30
2015,07,03,01,48,16.30
2015,07,03,01,49,16.30
2015,07,03,01,50,16.40
2015,07,03,01,51,16.40
2015,07,03,01,52,16.40
2015,07,03,01,53,16.40
2015,07,03,01,54,16.40
2015,07,03,01,55,16.50
2015,07,03,01,56,16.50
2015,07,03,01,57,16.50
2015,07,03,01,58,16.50
2015,07,03,01,59,16.60
2015,07,03,02,00,16.60
2015,07,03,02,01,16.60
2015,07,03,02,02,16.60
2015,07,03,02,03,16.60
2015,07,03,02,04,16.60
2015,07,03,02,05,16.60
2015,07,03,02,06,16.60
2015,07,03,02,07,16.50
2015,07,03,02,08,16.50
2015,07,03,02,09,16.50
2015,07,03,02,10,16.50
2015,07,03,02,11,16.40
2015,07,03,02,12,16.40
2015,07,03,02,13,16.40
2015,07,03,02,14,16.40
2015,07,03,02,15,16.30
2015,07,03,02,16,16.30
2015,07,03,02,17,16.30
2015,07,03,02,18,16.30
2015,07,03,02,19,16.20
2015,07,03,02,20,16.20
2015,07,03,02,21,16.20
2015,07,03,02,22,16.20
2015,07,03,02,23,16.20
2015,07,03,02,24,16.20
2015,07,03,02,25,16.20
2015,07,03,02,26,16.20
2015,07,03,02,27,16.20
2015,07,03,02,28,16.20
2015,07,03,02,29,16.30
2015,07,03,02,30,16.30
2015,07,03,02,31,16.30
2015,07,03,02,32,16.30
2015,07,03,02,33,16.30
2015,07,03,02,34,16.30
2015,07,03,02,35,16.30
2015,07,03,02,36,16.30
2015,07,03,02,37,16.30
2015,07,03,02,38,16.30
2015,07,03,02,39,16.30
2015,07,03,02,40,16.30
2015,07,03,02,41,16.30
2015,07,03,02,42,16.30
2015,07,03,02,43,16.30
2015,07,03,02,44,16.30
2015,07,03,02,45,16.30
2015,07,03,02,46,16.30
2015,07,03,02,47,16.30
2015,07,03,02,48,16.30
2015,07,03,02,49,16.40
2015,07,03,02,50,16.40
2015,07,03,02,51,16.40
2015,07,03,02,52,16.40
2015,07,03,02,53,16.40
2015,07,03,02,54,16.40
2015,07,03,02,55,16.40
2015,07,03,02,56,16.40
2015,07,03,02,57,16.40
2015,07,03,02,58,16.40
2015,07,03,02,59,16.40
2015,07,03,03,00,16.40
2015,07,03,03,01,16.30
2015,07,03,03,02,16.30
2015,07,03,03,03,16.30
2015,07,03,03,04,16.30
2015,07,03,03,05,16.30
2015,07,03,03,06,16.30
2015,07,03,03,07,16.30
2015,07,03,03,08,16.20
2015,07,03,03,09,16.20
2015,07,03,03,10,16.20
2015,07,03,03,11,16.10
2015,07,03,03,12,16.10
2015,07,03,03,13,16.10
2015,07,03,03,14,16.00
2015,07,03,03,15,16.00
2015,07,03,03,16,15.90
2015,07,03,03,17,15.90
2015,07,03,03,18,15.90
2015,07,03,03,19,15.80
2015,07,03,03,20,15.80
2015,07,03,03,21,15.80
2015,07,03,03,22,15.70
2015,07,03,03,23,15.70
2015,07,03,03,24,15.70
2015,07,03,03,25,15.70
2015,07,03,03,26,15.60
2015,07,03,03,27,15.60
2015,07,03,03,28,15.60
2015,07,03,03,29,15.60
2015,07,03,03,30,15.50
2015,07,03,03,31,15.50
2015,07,03,03,32,15.50
2015,07,03,03,33,15.50
2015,07,03,03,34,15.40
2015,07,03,03,35,15.40
2015,07,03,03,36,15.40
2015,07,03,03,37,15.40
2015,07,03,03,38,15.40
2015,07,03,03,39,15.30
2015,07,03,03,40,15.30
2015,07,03,03,41,15.30
2015,07,03,03,42,15.30
2015,07,03,03,43,15.30
2015,07,03,03,44,15.30
2015,07,03,03,45,15.30
2015,07,03,03,46,15.30
2015,07,03,03,47,15.30
2015,07,03,03,48,15.20
2015,07,03,03,49,15.20
2015,07,03,03,50,15.20
2015,07,03,03,51,15.20
2015,07,03,03,52,15.20
2015,07,03,03,53,15.20
2015,07,03,03,54,15.20
2015,07,03,03,55,15.10
2015,07,03,03,56,15.10
2015,07,03,03,57,15.10
2015,07,03,03,58,15.10
2015,07,03,03,59,15.10
2015,07,03,04,00,15.10
2015,07,03,04,01,15.10
2015,07,03,04,02,15.10
2015,07,03,04,03,15.10
2015,07,03,04,04,15.10
2015,07,03,04,05,15.00
2015,07,03,04,06,15.00
2015,07,03,04,07,15.00
2015,07,03,04,08,15.00
2015,07,03,04,09,15.00
2015,07,03,04,10,15.00
2015,07,03,04,11,14.90
2015,07,03,04,12,14.90
2015,07,03,04,13,14.90
2015,07,03,04,14,14.90
2015,07,03,04,15,14.90
2015,07,03,04,16,14.80
2015,07,03,04,17,14.80
2015,07,03,04,18,14.80
2015,07,03,04,19,14.80
2015,07,03,04,20,14.80
2015,07,03,04,21,14.80
2015,07,03,04,22,14.80
2015,07,03,04,23,14.80
2015,07,03,04,24,14.80
2015,07,03,04,25,14.70
2015,07,03,04,26,14.70
2015,07,03,04,27,14.70
2015,07,03,04,28,14.70
2015,07,03,04,29,14.70
2015,07,03,04,30,14.70
2015,07,03,04,31,14.70
2015,07,03,04,32,14.70
2015,07,03,04,33,14.70
2015,07,03,04,34,14.70
2015,07,03,04,35,14.60
2015,07,03,04,36,14.60
2015,07,03,04,37,14.60
2015,07,03,04,38,14.60
2015,07,03,04,39,14.60
2015,07,03,04,40,14.60
2015,07,03,04,41,14.60
2015,07,03,04,42,14.60
2015,07,03,04,43,14.60
2015,07,03,04,44,14.60
2015,07,03,04,45,14.60
2015,07,03,04,46,14.50
2015,07,03,04,47,14.50
2015,07,03,04,48,14.50
2015,07,03,04,49,14.50
2015,07,03,04,50,14.50
2015,07,03,04,51,14.50
2015,07,03,04,52,14.50
2015,07,03,04,53,14.40
2015,07,03,04,54,14.40
2015,07,03,04,55,14.40
2015,07,03,04,56,14.40
2015,07,03,04,57,14.40
2015,07,03,04,58,14.40
2015,07,03,04,59,14.50
2015,07,03,05,00,14.50
2015,07,03,05,01,14.50
2015,07,03,05,02,14.50
2015,07,03,05,03,14.50
2015,07,03,05,04,14.60
2015,07,03,05,05,14.60
2015,07,03,05,06,14.60
2015,07,03,05,07,14.60
2015,07,03,05,08,14.60
2015,07,03,05,09,14.60
2015,07,03,05,10,14.60
2015,07,03,05,11,14.60
2015,07,03,05,12,14.60
2015,07,03,05,13,14.60
2015,07,03,05,14,14.60
2015,07,03,05,15,14.60
2015,07,03,05,16,14.60
2015,07,03,05,17,14.70
2015,07,03,05,18,14.70
2015,07,03,05,19,14.70
2015,07,03,05,20,14.70
2015,07,03,05,21,14.70
2015,07,03,05,22,14.70
2015,07,03,05,23,14.70
2015,07,03,05,24,14.70
2015,07,03,05,25,14.70
2015,07,03,05,26,14.70
2015,07,03,05,27,14.70
2015,07,03,05,28,14.70
2015,07,03,05,29,14.70
2015,07,03,05,30,14.70
2015,07,03,05,31,14.80
2015,07,03,05,32,14.80
2015,07,03,05,33,14.80
2015,07,03,05,34,14.80
2015,07,03,05,35,14.80
2015,07,03,05,36,14.80
2015,07,03,05,37,14.80
2015,07,03,05,38,14.90
2015,07,03,05,39,14.90
2015,07,03,05,40,14.90
2015,07,03,05,41,14.90
2015,07,03,05,42,14.90
2015,07,03,05,43,14.90
2015,07,03,05,44,14.90
2015,07,03,05,45,14.90
2015,07,03,05,46,15.00
2015,07,03,05,47,15.00
2015,07,03,05,48,15.00
2015,07,03,05,49,15.10
2015,07,03,05,50,15.10
2015,07,03,05,51,15.10
2015,07,03,05,52,15.10
2015,07,03,05,53,15.10
2015,07,03,05,54,15.10
2015,07,03,05,55,15.10
2015,07,03,05,56,15.10
2015,07,03,05,57,15.20
2015,07,03,05,58,15.20
2015,07,03,05,59,15.20
2015,07,03,06,00,15.20
2015,07,03,06,01,15.20
2015,07,03,06,02,15.20
2015,07,03,06,03,15.20
2015,07,03,06,04,15.30
2015,07,03,06,05,15.30
2015,07,03,06,06,15.30
2015,07,03,06,07,15.30
2015,07,03,06,08,15.30
2015,07,03,06,09,15.40
2015,07,03,06,10,15.40
2015,07,03,06,11,15.40
2015,07,03,06,12,15.40
2015,07,03,06,13,15.50
2015,07,03,06,14,15.60
2015,07,03,06,15,15.60
2015,07,03,06,16,15.70
2015,07,03,06,17,15.70
2015,07,03,06,18,15.80
2015,07,03,06,19,15.90
2015,07,03,06,20,15.90
2015,07,03,06,21,16.00
2015,07,03,06,22,16.10
2015,07,03,06,23,16.10
2015,07,03,06,24,16.20
2015,07,03,06,25,16.30
2015,07,03,06,26,16.30
2015,07,03,06,27,16.40
2015,07,03,06,28,16.40
2015,07,03,06,29,16.50
2015,07,03,06,30,16.50
2015,07,03,06,31,16.60
2015,07,03,06,32,16.60
2015,07,03,06,33,16.60
2015,07,03,06,34,16.70
2015,07,03,06,35,16.70
2015,07,03,06,36,16.80
2015,07,03,06,37,16.80
2015,07,03,06,38,16.90
2015,07,03,06,39,16.90
2015,07,03,06,40,17.00
2015,07,03,06,41,17.10
2015,07,03,06,42,17.10
2015,07,03,06,43,17.20
2015,07,03,06,44,17.30
2015,07,03,06,45,17.30
2015,07,03,06,46,17.40
2015,07,03,06,47,17.40
2015,07,03,06,48,17.50
2015,07,03,06,49,17.60
2015,07,03,06,50,17.60
2015,07,03,06,51,17.70
2015,07,03,06,52,17.80
2015,07,03,06,53,17.80
2015,07,03,06,54,17.90
2015,07,03,06,55,17.90
2015,07,03,06,56,17.90
2015,07,03,06,57,18.00
2015,07,03,06,58,18.00
2015,07,03,06,59,18.10
2015,07,03,07,00,18.10
2015,07,03,07,01,18.20
2015,07,03,07,02,18.20
2015,07,03,07,03,18.30
2015,07,03,07,04,18.30
2015,07,03,07,05,18.30
2015,07,03,07,06,18.40
2015,07,03,07,07,18.40
2015,07,03,07,08,18.40
2015,07,03,07,09,18.40
2015,07,03,07,10,18.50
2015,07,03,07,11,18.50
2015,07,03,07,12,18.60
2015,07,03,07,13,18.60
2015,07,03,07,14,18.60
2015,07,03,07,15,18.60
2015,07,03,07,16,18.70
2015,07,03,07,17,18.70
2015,07,03,07,18,18.70
2015,07,03,07,19,18.80
2015,07,03,07,20,18.80
2015,07,03,07,21,18.90
2015,07,03,07,22,19.00
2015,07,03,07,23,19.00
2015,07,03,07,24,19.10
2015,07,03,07,25,19.10
2015,07,03,07,26,19.20
2015,07,03,07,27,19.20
2015,07,03,07,28,19.20
2015,07,03,07,29,19.30
2015,07,03,07,30,19.30
2015,07,03,07,31,19.30
2015,07,03,07,32,19.40
2015,07,03,07,33,19.40
2015,07,03,07,34,19.50
2015,07,03,07,35,19.60
2015,07,03,07,36,19.60
2015,07,03,07,37,19.70
2015,07,03,07,38,19.70
2015,07,03,07,39,19.70
2015,07,03,07,40,19.80
2015,07,03,07,41,19.80
2015,07,03,07,42,19.80
2015,07,03,07,43,19.80
2015,07,03,07,44,19.80
2015,07,03,07,45,19.80
2015,07,03,07,46,19.80
2015,07,03,07,47,19.80
2015,07,03,07,48,19.90
2015,07,03,07,49,19.90
2015,07,03,07,50,20.00
2015,07,03,07,51,20.00
2015,07,03,07,52,20.10
2015,07,03,07,53,20.10
2015,07,03,07,54,20.20
2015,07,03,07,55,20.30
2015,07,03,07,56,20.30
2015,07,03,07,57,20.40
2015,07,03,07,58,20.40
2015,07,03,07,59,20.40
2015,07,03,08,00,20.50
2015,07,03,08,01,20.60
2015,07,03,08,02,20.70
2015,07,03,08,03,20.70
2015,07,03,08,04,20.80
2015,07,03,08,05,20.80
2015,07,03,08,06,20.80
2015,07,03,08,07,20.90
2015,07,03,08,08,20.90
2015,07,03,08,09,20.90
2015,07,03,08,10,20.90
2015,07,03,08,11,20.90
2015,07,03,08,12,20.90
2015,07,03,08,13,21.00
2015,07,03,08,14,21.00
2015,07,03,08,15,21.10
2015,07,03,08,16,21.10
2015,07,03,08,17,21.10
2015,07,03,08,18,21.20
2015,07,03,08,19,21.20
2015,07,03,08,20,21.20
2015,07,03,08,21,21.30
2015,07,03,08,22,21.30
2015,07,03,08,23,21.30
2015,07,03,08,24,21.40
2015,07,03,08,25,21.50
2015,07,03,08,26,21.50
2015,07,03,08,27,21.60
2015,07,03,08,28,21.60
2015,07,03,08,29,21.70
2015,07,03,08,30,21.70
2015,07,03,08,31,21.70
2015,07,03,08,32,21.80
2015,07,03,08,33,21.80
2015,07,03,08,34,21.80
2015,07,03,08,35,21.80
2015,07,03,08,36,21.70
2015,07,03,08,37,21.70
2015,07,03,08,38,21.70
2015,07,03,08,39,21.70
2015,07,03,08,40,21.70
2015,07,03,08,41,21.70
2015,07,03,08,42,21.70
2015,07,03,08,43,21.60
2015,07,03,08,44,21.50
2015,07,03,08,45,21.30
2015,07,03,08,46,21.20
2015,07,03,08,47,21.10
2015,07,03,08,48,21.00
2015,07,03,08,49,20.90
2015,07,03,08,50,20.80
2015,07,03,08,51,20.70
2015,07,03,08,52,20.70
2015,07,03,08,53,20.60
2015,07,03,08,54,20.60
2015,07,03,08,55,20.70
2015,07,03,08,56,20.70
2015,07,03,08,57,20.80
2015,07,03,08,58,20.80
2015,07,03,08,59,20.80
2015,07,03,09,00,20.80
2015,07,03,09,01,20.90
2015,07,03,09,02,21.00
2015,07,03,09,03,21.10
2015,07,03,09,04,21.20
2015,07,03,09,05,21.30
2015,07,03,09,06,21.50
2015,07,03,09,07,21.60
2015,07,03,09,08,21.70
2015,07,03,09,09,21.70
2015,07,03,09,10,21.70
2015,07,03,09,11,21.70
2015,07,03,09,12,21.70
2015,07,03,09,13,21.80
2015,07,03,09,14,21.80
2015,07,03,09,15,21.90
2015,07,03,09,16,21.90
2015,07,03,09,17,21.90
2015,07,03,09,18,21.90
2015,07,03,09,19,21.90
2015,07,03,09,20,22.00
2015,07,03,09,21,22.10
2015,07,03,09,22,22.10
2015,07,03,09,23,22.00
2015,07,03,09,24,21.90
2015,07,03,09,25,21.90
2015,07,03,09,26,21.80
2015,07,03,09,27,21.80
2015,07,03,09,28,21.80
2015,07,03,09,29,21.80
2015,07,03,09,30,21.80
2015,07,03,09,31,21.80
2015,07,03,09,32,21.80
2015,07,03,09,33,21.80
2015,07,03,09,34,21.80
2015,07,03,09,35,21.80
2015,07,03,09,36,21.80
2015,07,03,09,37,21.80
2015,07,03,09,38,21.80
2015,07,03,09,39,21.90
2015,07,03,09,40,22.00
2015,07,03,09,41,22.00
2015,07,03,09,42,22.10
2015,07,03,09,43,22.10
2015,07,03,09,44,22.10
2015,07,03,09,45,22.10
2015,07,03,09,46,22.10
2015,07,03,09,47,22.20
2015,07,03,09,48,22.20
2015,07,03,09,49,22.20
2015,07,03,09,50,22.30
2015,07,03,09,51,22.40
2015,07,03,09,52,22.50
2015,07,03,09,53,22.50
2015,07,03,09,54,22.50
2015,07,03,09,55,22.40
2015,07,03,09,56,22.30
2015,07,03,09,57,22.20
2015,07,03,09,58,22.20
2015,07,03,09,59,22.30
2015,07,03,10,00,22.30
2015,07,03,10,01,22.30
2015,07,03,10,02,22.30
2015,07,03,10,03,22.40
2015,07,03,10,04,22.40
2015,07,03,10,05,22.30
2015,07,03,10,06,22.20
2015,07,03,10,07,22.20
2015,07,03,10,08,22.10
2015,07,03,10,09,22.00
2015,07,03,10,10,21.90
2015,07,03,10,11,21.90
2015,07,03,10,12,21.90
2015,07,03,10,13,21.80
2015,07,03,10,14,21.80
2015,07,03,10,15,21.80
2015,07,03,10,16,21.70
2015,07,03,10,17,21.70
2015,07,03,10,18,21.70
2015,07,03,10,19,21.80
2015,07,03,10,20,21.80
2015,07,03,10,21,21.80
2015,07,03,10,22,21.80
2015,07,03,10,23,21.90
2015,07,03,10,24,22.00
2015,07,03,10,25,22.10
2015,07,03,10,26,22.20
2015,07,03,10,27,22.30
2015,07,03,10,28,22.40
2015,07,03,10,29,22.50
2015,07,03,10,30,22.70
2015,07,03,10,31,22.80
2015,07,03,10,32,22.80
2015,07,03,10,33,22.80
2015,07,03,10,34,22.80
2015,07,03,10,35,22.80
2015,07,03,10,36,22.70
2015,07,03,10,37,22.70
2015,07,03,10,38,22.70
2015,07,03,10,39,22.70
2015,07,03,10,40,22.70
2015,07,03,10,41,22.70
2015,07,03,10,42,22.70
2015,07,03,10,43,22.80
2015,07,03,10,44,22.90
2015,07,03,10,45,23.00
2015,07,03,10,46,23.00
2015,07,03,10,47,23.10
2015,07,03,10,48,23.20
2015,07,03,10,49,23.20
2015,07,03,10,50,23.20
2015,07,03,10,51,23.20
2015,07,03,10,52,23.20
2015,07,03,10,53,23.20
2015,07,03,10,54,23.20
2015,07,03,10,55,23.10
2015,07,03,10,56,23.00
2015,07,03,10,57,22.80
2015,07,03,10,58,22.70
2015,07,03,10,59,22.50
2015,07,03,11,00,22.40
2015,07,03,11,01,22.20
2015,07,03,11,02,22.00
2015,07,03,11,03,21.80
2015,07,03,11,04,21.60
2015,07,03,11,05,21.50
2015,07,03,11,06,21.40
2015,07,03,11,07,21.40
2015,07,03,11,08,21.40
2015,07,03,11,09,21.40
2015,07,03,11,10,21.30
2015,07,03,11,11,21.30
2015,07,03,11,12,21.30
2015,07,03,11,13,21.40
2015,07,03,11,14,21.40
2015,07,03,11,15,21.50
2015,07,03,11,16,21.60
2015,07,03,11,17,21.80
2015,07,03,11,18,21.90
2015,07,03,11,19,21.90
2015,07,03,11,20,21.90
2015,07,03,11,21,21.80
2015,07,03,11,22,21.70
2015,07,03,11,23,21.70
2015,07,03,11,24,21.70
2015,07,03,11,25,21.70
2015,07,03,11,26,21.70
2015,07,03,11,27,21.80
2015,07,03,11,28,21.80
2015,07,03,11,29,21.80
2015,07,03,11,30,21.90
2015,07,03,11,31,22.00
2015,07,03,11,32,22.20
2015,07,03,11,33,22.40
2015,07,03,11,34,22.60
2015,07,03,11,35,22.70
2015,07,03,11,36,22.90
2015,07,03,11,37,23.00
2015,07,03,11,38,23.00
2015,07,03,11,39,23.00
2015,07,03,11,40,23.00
2015,07,03,11,41,23.10
2015,07,03,11,42,23.10
2015,07,03,11,43,23.20
2015,07,03,11,44,23.30
2015,07,03,11,45,23.50
2015,07,03,11,46,23.60
2015,07,03,11,47,23.70
2015,07,03,11,48,23.90
2015,07,03,11,49,24.10
2015,07,03,11,50,24.10
2015,07,03,11,51,24.20
2015,07,03,11,52,24.30
2015,07,03,11,53,24.30
2015,07,03,11,54,24.30
2015,07,03,11,55,24.30
2015,07,03,11,56,24.30
2015,07,03,11,57,24.20
2015,07,03,11,58,24.20
2015,07,03,11,59,24.20
2015,07,03,12,00,24.10
2015,07,03,12,01,24.10
2015,07,03,12,02,24.00
2015,07,03,12,03,24.00
2015,07,03,12,04,23.90
2015,07,03,12,05,23.90
2015,07,03,12,06,23.90
2015,07,03,12,07,23.70
2015,07,03,12,08,23.70
2015,07,03,12,09,23.60
2015,07,03,12,10,23.60
2015,07,03,12,11,23.60
2015,07,03,12,12,23.60
2015,07,03,12,13,23.60
2015,07,03,12,14,23.60
2015,07,03,12,15,23.70
2015,07,03,12,16,23.70
2015,07,03,12,17,23.80
2015,07,03,12,18,23.80
2015,07,03,12,19,23.80
2015,07,03,12,20,23.70
2015,07,03,12,21,23.60
2015,07,03,12,22,23.60
2015,07,03,12,23,23.50
2015,07,03,12,24,23.40
2015,07,03,12,25,23.30
2015,07,03,12,26,23.30
2015,07,03,12,27,23.30
2015,07,03,12,28,23.40
2015,07,03,12,29,23.50
2015,07,03,12,30,23.60
2015,07,03,12,31,23.70
2015,07,03,12,32,23.70
2015,07,03,12,33,23.70
2015,07,03,12,34,23.70
2015,07,03,12,35,23.70
2015,07,03,12,36,23.80
2015,07,03,12,37,23.90
2015,07,03,12,38,23.90
2015,07,03,12,39,23.90
2015,07,03,12,40,24.00
2015,07,03,12,41,24.10
2015,07,03,12,42,24.20
2015,07,03,12,43,24.20
2015,07,03,12,44,24.30
2015,07,03,12,45,24.30
2015,07,03,12,46,24.30
2015,07,03,12,47,24.40
2015,07,03,12,48,24.60
2015,07,03,12,49,24.70
2015,07,03,12,50,24.80
2015,07,03,12,51,25.00
2015,07,03,12,52,25.10
2015,07,03,12,53,25.10
2015,07,03,12,54,25.00
2015,07,03,12,55,25.10
2015,07,03,12,56,25.10
2015,07,03,12,57,25.20
2015,07,03,12,58,25.20
2015,07,03,12,59,25.20
2015,07,03,13,00,25.20
2015,07,03,13,01,25.20
2015,07,03,13,02,25.10
2015,07,03,13,03,24.90
2015,07,03,13,04,24.80
2015,07,03,13,05,24.70
2015,07,03,13,06,24.70
2015,07,03,13,07,24.70
2015,07,03,13,08,24.70
2015,07,03,13,09,24.70
2015,07,03,13,10,24.60
2015,07,03,13,11,24.60
2015,07,03,13,12,24.50
2015,07,03,13,13,24.40
2015,07,03,13,14,24.40
2015,07,03,13,15,24.30
2015,07,03,13,16,24.20
2015,07,03,13,17,24.20
2015,07,03,13,18,24.10
2015,07,03,13,19,24.10
2015,07,03,13,20,24.10
2015,07,03,13,21,24.00
2015,07,03,13,22,23.90
2015,07,03,13,23,23.90
2015,07,03,13,24,23.80
2015,07,03,13,25,23.80
2015,07,03,13,26,23.70
2015,07,03,13,27,23.70
2015,07,03,13,28,23.70
2015,07,03,13,29,23.80
2015,07,03,13,30,23.90
2015,07,03,13,31,24.00
2015,07,03,13,32,24.10
2015,07,03,13,33,24.30
2015,07,03,13,34,24.40
2015,07,03,13,35,24.60
2015,07,03,13,36,24.70
2015,07,03,13,37,24.80
2015,07,03,13,38,24.90
2015,07,03,13,39,24.90
2015,07,03,13,40,24.80
2015,07,03,13,41,24.80
2015,07,03,13,42,24.70
2015,07,03,13,43,24.70
2015,07,03,13,44,24.60
2015,07,03,13,45,24.70
2015,07,03,13,46,24.70
2015,07,03,13,47,24.60
2015,07,03,13,48,24.60
2015,07,03,13,49,24.60
2015,07,03,13,50,24.60
2015,07,03,13,51,24.50
2015,07,03,13,52,24.50
2015,07,03,13,53,24.50
2015,07,03,13,54,24.50
2015,07,03,13,55,24.50
2015,07,03,13,56,24.50
2015,07,03,13,57,24.50
2015,07,03,13,58,24.60
2015,07,03,13,59,24.70
2015,07,03,14,00,24.70
2015,07,03,14,01,24.80
2015,07,03,14,02,24.80
2015,07,03,14,03,24.90
2015,07,03,14,04,25.00
2015,07,03,14,05,25.00
2015,07,03,14,06,25.10
2015,07,03,14,07,25.00
2015,07,03,14,08,25.00
2015,07,03,14,09,25.00
2015,07,03,14,10,25.00
2015,07,03,14,11,25.00
2015,07,03,14,12,25.10
2015,07,03,14,13,25.20
2015,07,03,14,14,25.30
2015,07,03,14,15,25.40
2015,07,03,14,16,25.40
2015,07,03,14,17,25.50
2015,07,03,14,18,25.50
2015,07,03,14,19,25.60
2015,07,03,14,20,25.60
2015,07,03,14,21,25.70
2015,07,03,14,22,25.70
2015,07,03,14,23,25.80
2015,07,03,14,24,25.80
2015,07,03,14,25,25.80
2015,07,03,14,26,25.80
2015,07,03,14,27,25.80
2015,07,03,14,28,25.80
2015,07,03,14,29,25.90
2015,07,03,14,30,25.90
2015,07,03,14,31,25.90
2015,07,03,14,32,25.80
2015,07,03,14,33,25.80
2015,07,03,14,34,25.80
2015,07,03,14,35,25.70
2015,07,03,14,36,25.70
2015,07,03,14,37,25.80
2015,07,03,14,38,25.90
2015,07,03,14,39,26.00
2015,07,03,14,40,26.10
2015,07,03,14,41,26.30
2015,07,03,14,42,26.40
2015,07,03,14,43,26.50
2015,07,03,14,44,26.60
2015,07,03,14,45,26.50
2015,07,03,14,46,26.50
2015,07,03,14,47,26.40
2015,07,03,14,48,26.40
2015,07,03,14,49,26.30
2015,07,03,14,50,26.30
2015,07,03,14,51,26.30
2015,07,03,14,52,26.30
2015,07,03,14,53,26.20
2015,07,03,14,54,26.20
2015,07,03,14,55,26.10
2015,07,03,14,56,26.10
2015,07,03,14,57,26.10
2015,07,03,14,58,26.20
2015,07,03,14,59,26.10
2015,07,03,15,00,26.00
2015,07,03,15,01,26.00
2015,07,03,15,02,26.00
2015,07,03,15,03,25.80
2015,07,03,15,04,25.80
2015,07,03,15,05,25.80
2015,07,03,15,06,25.80
2015,07,03,15,07,25.80
2015,07,03,15,08,25.80
2015,07,03,15,09,25.80
2015,07,03,15,10,25.80
2015,07,03,15,11,25.80
2015,07,03,15,12,25.80
2015,07,03,15,13,25.80
2015,07,03,15,14,25.80
2015,07,03,15,15,25.90
2015,07,03,15,16,26.10
2015,07,03,15,17,26.30
2015,07,03,15,18,26.30
2015,07,03,15,19,26.40
2015,07,03,15,20,26.40
2015,07,03,15,21,26.50
2015,07,03,15,22,26.40
2015,07,03,15,23,26.30
2015,07,03,15,24,26.10
2015,07,03,15,25,26.00
2015,07,03,15,26,26.00
2015,07,03,15,27,25.90
2015,07,03,15,28,25.90
2015,07,03,15,29,25.90
2015,07,03,15,30,25.90
2015,07,03,15,31,25.90
2015,07,03,15,32,25.90
2015,07,03,15,33,25.90
2015,07,03,15,34,25.90
2015,07,03,15,35,25.90
2015,07,03,15,36,25.80
2015,07,03,15,37,25.70
2015,07,03,15,38,25.60
2015,07,03,15,39,25.50
2015,07,03,15,40,25.30
2015,07,03,15,41,25.00
2015,07,03,15,42,24.80
2015,07,03,15,43,24.60
2015,07,03,15,44,24.40
2015,07,03,15,45,24.40
2015,07,03,15,46,24.30
2015,07,03,15,47,24.20
2015,07,03,15,48,24.10
2015,07,03,15,49,24.00
2015,07,03,15,50,24.00
2015,07,03,15,51,24.00
2015,07,03,15,52,24.20
2015,07,03,15,53,24.40
2015,07,03,15,54,24.60
2015,07,03,15,55,24.80
2015,07,03,15,56,25.00
2015,07,03,15,57,25.20
2015,07,03,15,58,25.30
2015,07,03,15,59,25.50
2015,07,03,16,00,25.70
2015,07,03,16,01,25.80
2015,07,03,16,02,25.80
2015,07,03,16,03,25.90
2015,07,03,16,04,25.90
2015,07,03,16,05,25.90
2015,07,03,16,06,25.90
2015,07,03,16,07,25.80
2015,07,03,16,08,25.80
2015,07,03,16,09,25.70
2015,07,03,16,10,25.70
2015,07,03,16,11,25.70
2015,07,03,16,12,25.60
2015,07,03,16,13,25.60
2015,07,03,16,14,25.60
2015,07,03,16,15,25.60
2015,07,03,16,16,25.70
2015,07,03,16,17,25.70
2015,07,03,16,18,25.80
2015,07,03,16,19,25.80
2015,07,03,16,20,25.90
2015,07,03,16,21,25.90
2015,07,03,16,22,26.00
2015,07,03,16,23,26.10
2015,07,03,16,24,26.10
2015,07,03,16,25,26.10
2015,07,03,16,26,26.20
2015,07,03,16,27,26.20
2015,07,03,16,28,26.20
2015,07,03,16,29,26.20
2015,07,03,16,30,26.30
2015,07,03,16,31,26.30
2015,07,03,16,32,26.30
2015,07,03,16,33,26.40
2015,07,03,16,34,26.40
2015,07,03,16,35,26.50
2015,07,03,16,36,26.50
2015,07,03,16,37,26.60
2015,07,03,16,38,26.70
2015,07,03,16,39,26.80
2015,07,03,16,40,26.80
2015,07,03,16,41,26.80
2015,07,03,16,42,26.80
2015,07,03,16,43,26.80
2015,07,03,16,44,26.90
2015,07,03,16,45,26.90
2015,07,03,16,46,27.00
2015,07,03,16,47,27.00
2015,07,03,16,48,27.10
2015,07,03,16,49,27.10
2015,07,03,16,50,27.10
2015,07,03,16,51,27.10
2015,07,03,16,52,27.10
2015,07,03,16,53,27.10
2015,07,03,16,54,27.10
2015,07,03,16,55,27.20
2015,07,03,16,56,27.30
2015,07,03,16,57,27.30
2015,07,03,16,58,27.30
2015,07,03,16,59,27.20
2015,07,03,17,00,27.20
2015,07,03,17,01,27.20
2015,07,03,17,02,27.20
2015,07,03,17,03,27.20
2015,07,03,17,04,27.20
2015,07,03,17,05,27.20
2015,07,03,17,06,27.10
2015,07,03,17,07,27.10
2015,07,03,17,08,27.10
2015,07,03,17,09,27.00
2015,07,03,17,10,26.90
2015,07,03,17,11,26.80
2015,07,03,17,12,26.80
2015,07,03,17,13,26.70
2015,07,03,17,14,26.70
2015,07,03,17,15,26.70
2015,07,03,17,16,26.70
2015,07,03,17,17,26.70
2015,07,03,17,18,26.70
2015,07,03,17,19,26.60